Regional Weather Roundup
Issued by NWS

Home | Current Version | Previous Version | Text Only | Print | Product List | Glossary Off
Versions: 1 2 3 4 5 6 7 8 9 10 11 12 13 14 15 16 17 18 19 20 21 22 23 24 25 26 27 28 29 30 31 32 33 34 35 36 37 38 39 40 41 42 43 44 45 46 47 48 49 50

000
ASUS43 KMKX 061200
RWRWI

WISCONSIN REGIONAL WEATHER ROUNDUP
NATIONAL WEATHER SERVICE MILWAUKEE/SULLIVAN WI
700 AM CDT FRI MAY 06 2016

NOTE: "FAIR" INDICATES FEW OR NO CLOUDS BELOW 12,000 FEET WITH NO
SIGNIFICANT WEATHER AND/OR OBSTRUCTIONS TO VISIBILITY.

WIZ001-002-006>008-014>016-023>028-061300-
NORTHWEST WISCONSIN

CITY           SKY/WX    TMP DP  RH WIND       PRES   REMARKS
SUPERIOR ARPT  SUNNY     59  44  56 SW9       29.78R
ASHLAND        NOT AVBL
HAYWARD        NOT AVBL
SIREN          MOSUNNY   60  43  54 W6        29.84S
CUMBERLAND     SUNNY     55  41  58 SW5       29.86R
RICE LAKE      SUNNY     47  42  83 CALM      29.87S
CHETEK         SUNNY     44  43  95 E5        29.86S
LADYSMITH      SUNNY     50  40  67 CALM      29.88R
EAU CLAIRE     NOT AVBL
MENOMONIE      SUNNY     49  44  81 CALM      29.87R
NEW RICHMOND   SUNNY     51  43  74 S5        29.87S
OSCEOLA        SUNNY     55  43  65 SW6       29.89R
$$

WIZ003>005-009-010-017-018-061300-
NORTH CENTRAL WISCONSIN

CITY           SKY/WX    TMP DP  RH WIND       PRES   REMARKS
MANITOWISH WTR SUNNY     47  41  78 CALM      29.83S
ARBOR VITAE    SUNNY     52  41  67 CALM      29.84S
WOODRUFF       SUNNY     52  41  67 CALM      29.84S
RHINELANDER    NOT AVBL
EAGLE RIVER    SUNNY     44  37  76 CALM      29.84S
LAND O LAKES   SUNNY     44  41  89 CALM      29.84S
PHILLIPS       SUNNY     51  39  63 S5        29.85R
TOMAHAWK       MOSUNNY   46  39  75 CALM      29.86S
MEDFORD        MOSUNNY   52  40  63 SW5       29.87R
MERRILL        CLOUDY    44  41  89 CALM      29.88R
$$

WIZ029-030-035-036-043>047-061300-
CENTRAL WISCONSIN

CITY           SKY/WX    TMP DP  RH WIND       PRES   REMARKS
WAUSAU         NOT AVBL
MOSINEE        PTSUNNY   50  43  76 S5        29.89R
MARSHFIELD     NOT AVBL
STEVENS POINT  DRIZZLE   49  39  67 SW5       29.90R
WAUPACA        MOSUNNY   51  40  66 SW3       29.90S
WAUTOMA        MOSUNNY   50  40  68 CALM      29.92R
6HR MIN TEMP:  42; 6HR MAX TEMP:  50;

WISC RAPIDS    NOT AVBL
CAMP DOUGLAS   NOT AVBL
$$

WIZ011>013-019>022-031-037>040-048>050-061300-
NORTHEAST WISCONSIN

CITY           SKY/WX    TMP DP  RH WIND       PRES   REMARKS
ANTIGO         CLOUDY    50  39  67 CALM      29.88R
SHAWANO        MOSUNNY   52  38  58 SW3       29.88S
OCONTO         SUNNY     48  46  93 S3        29.88R
STURGEON BAY   SUNNY     48  39  71 S7        29.92R
6HR MIN TEMP:  45; 6HR MAX TEMP:  48;

GREEN BAY      NOT AVBL
MANITOWOC      NOT AVBL
APPLETON       MOSUNNY   48  37  66 VRB6      29.89R
CLINTONVILLE   MOSUNNY   46  41  81 CALM      29.88S
OSHKOSH        SUNNY     51  39  63 S10       29.90S
6HR MIN TEMP:  44; 6HR MAX TEMP:  51;

$$

WIZ032>034-041-042-053>061-061300-
SOUTHWEST WISCONSIN

CITY           SKY/WX    TMP DP  RH WIND       PRES   REMARKS
LA CROSSE      NOT AVBL
SPARTA         MOSUNNY   43  41  91 CALM      29.92R
VIROQUA        MOSUNNY   52  39  61 SW6       29.93R
BOSCOBEL       CLOUDY    47  43  86 CALM      29.96R
6HR MIN TEMP:  42; 6HR MAX TEMP:  49;

PRAIRIE DU CHI PTSUNNY   48  41  75 E3        29.95R
PLATTEVILLE    SUNNY     50  39  67 S7        29.96R
$$

WIZ056-057-062-063-064-067-068-061300-
SOUTH CENTRAL WISCONSIN

CITY           SKY/WX    TMP DP  RH WIND       PRES   REMARKS
REEDSBURG      MOSUNNY   53  39  58 CALM      29.92S
BARABOO/DELLS  PTSUNNY   56  36  46 SW6       29.92S
LONE ROCK      NOT AVBL
MINERAL POINT  PTSUNNY   52  37  58 S3        29.96R
MADISON        MOSUNNY   52  38  58 S6        29.95R
6HR MIN TEMP:  44; 6HR MAX TEMP:  52;

MIDDLETON      SUNNY     55  36  47 SW6       29.95R
WATERTOWN      CLOUDY    49  42  76 S5        29.95R
MONROE         SUNNY     46  39  76 S10       29.97R
JANESVILLE     MOSUNNY   50  43  76 S5        29.97S
$$

WIZ051-052-058>065-066-070>072-061300-
SOUTHEAST WISCONSIN

CITY           SKY/WX    TMP DP  RH WIND       PRES   REMARKS
MILWAUKEE      CLOUDY    52  42  69 S3        29.96R
6HR MIN TEMP:  45; 6HR MAX TEMP:  53; 6HR PCP: TRACE;

WAUKESHA       PTSUNNY   52  37  58 SW5       29.97R
MILWAUKEE/TIMM CLOUDY    50  36  57 SW3       29.96R
RACINE         LGT RAIN  53  40  61 W5        29.97S
6HR MIN TEMP:  42; 6HR MAX TEMP:  53; 6HR PCP: TRACE;

BURLINGTON     CLOUDY    49  41  76 SW7       29.97R
KENOSHA        CLOUDY    51  43  74 W7        29.97R
6HR MIN TEMP:  41; 6HR MAX TEMP:  51; 6HR PCP: TRACE;

FOND DU LAC    CLOUDY    53  40  61 S5        29.93R
6HR MIN TEMP:  45; 6HR MAX TEMP:  53;

SHEBOYGAN      SUNNY     48  42  80 SW5       29.93S
6HR MIN TEMP:  44; 6HR MAX TEMP:  50; 6HR PCP: TRACE;

WEST BEND      MOSUNNY   52  36  54 SW6       29.95R
JUNEAU         CLOUDY    48  38  69 S7        29.95S
$$

LSZ147-162-061300-
LAKE SUPERIOR

STATION/POSITION TIME  TEMP    WIND        PRES    WAVE
                       AIR SEA DIR/SP/G            HT/PER
                 (UTC) (F)     (DEG/KT/KT) (MB)    (FT/S)
W MID LAKE BUOY  1050   42 37  220/ 10/ 10 1007.3R   1/ 3
DEVILS ISLAND    1100   52     240/ 16/ 16 1007.2F
PORT WING        1000   54     180/  6/  6 1007.8
SAXON HARBOR     1100   63     170/  9/ 13 1007.8R
$$

LMZ867-665-643>646-061300-
LAKE MICHIGAN

STATION/POSITION TIME  TEMP    WIND        PRES    WAVE
                       AIR SEA DIR/SP/G            HT/PER
                 (UTC) (F)     (DEG/KT/KT) (MB)    (FT/S)
CHAMBERS ISLAND  1100   53     180/  6/ 11 1011.9S
N MID LAKE BUOY  1050   41 39  190/ 12/ 12 1012.2S   1/ 3
NORTHPORT PIER   1100   45     190/  4/  7 1011.9S
ALGOMA LAKESHORE 1115          200/  8/  8   N/A
KEWAUNEE LAKESHO 1100   47     200/  2/  4 1011.8F
SHEBOYGAN LAKESH 1100   48     210/  8/  8 1013.9F
PORT WASHINGTON  1100   47     230/  2/  5 1014.6R
S MID LAKE BUOY  1050   44 40  220/  6/  8 1014.8R   1
KENOSHA   LAKESH 1100   50     220/  3/  4 1014.6R
$$

TC  - TEMPERATURE IN CELSIUS
VSB - VISIBILITY IN STATUTE MILES
WCI - WIND CHILL INDEX
HX  - HEAT INDEX




USA.gov is the U.S. government's official web portal to all federal, state and local government web resources and services.